Powrót do katalogu

CZ-6A DEB

AktywnyPO
NORAD 54484·DEBRIS·🇨🇳 China

Wystrzelony Nov 11, 2022 z Taiyuan Satellite Launch Center

Loading…

Następne Przeloty (najbliższe 24 godziny)

TLE

ŚwieżeSource: Space-Track

Epoka: Sep 14, 2026, 04:18 UTC

1 54484U 22151HL  26257.17928029  .00010936  00000-0  12974-2 0  9990
2 54484  98.6132 337.5545 0054693 324.8782  34.8828 14.83616482203628

Śledź CZ-6A DEB w czasie rzeczywistym z AllMySat

Download on the App Store